Weather History for KIMT - October, 2013

Change the Weather History Date:

Wednesday, October 2, 2013

  Actual Average Record
Temperature  
Mean Temperature 56 °F -  
Max Temperature 73 °F 63 °F 81 °F (1992)
Min Temperature 39 °F 39 °F 22 °F (1975)
Degree Days  
Heating Degree Days 9    
Growing Degree Days 6 (Base 50)    
Moisture  
Dew Point 38 °F    
Average Humidity 50    
Maximum Humidity 83    
Minimum Humidity 23    
Precipitation  
Precipitation 0.00 in - - ()
Sea Level Pressure  
Sea Level Pressure 30.02 in    
Wind  
Wind Speed 4 mph (WSW)    
Max Wind Speed 9 mph    
Max Gust Speed -    
Visibility 10 miles    
Events      
Averages and records for this station are not official NWS values.
T = Trace of Precipitation, MM = Missing Value Source: NWS Daily Summary

Daily Weather History Graph

Daily Weather History Graph

Search for Another Location

Airport or City:

Trip Planner

Search our weather history database for the weather conditions in past years. The results will help you decide how hot, cold, wet, or windy it might be!

Date:

Astronomy

Oct. 02, 2013 Rise Set
Actual Time 6:52 AM CDT 6:30 PM CDT
Civil Twilight 6:22 AM CDT 6:59 PM CDT
Nautical Twilight 5:48 AM CDT 7:34 PM CDT
Astronomical Twilight 5:13 AM CDT 8:09 PM CDT
Moon 4:19 AM CDT (10/2) 5:10 PM CDT (10/2)
Length of Visible Light 12h 37m
Length of Day
11h 37m
Waning Crescent, 6% of the Moon is Illuminated
Oct 2
Waning Crescent
Oct 4
New
Oct 11
First Quarter
Oct 18
Full
Oct 26
Last Quarter

Hourly Weather History & Observations

Time (CDT) Temp. Windchill Dew Point Humidity Pressure Visibility Wind Dir Wind Speed Gust Speed Precip Events Conditions
12:54 AM 54.0 °F - 37.0 °F 53% 29.92 in 10.0 mi West 6.9 mph - N/A   Clear
1:54 AM 54.0 °F - 36.0 °F 51% 29.94 in 10.0 mi West 8.1 mph - N/A   Clear
2:54 AM 51.1 °F - 36.0 °F 56% 29.95 in 10.0 mi West 5.8 mph - N/A   Clear
3:54 AM 50.0 °F - 36.0 °F 59% 29.97 in 10.0 mi West 4.6 mph - N/A   Clear
4:54 AM 46.0 °F - 36.0 °F 68% 29.99 in 10.0 mi Calm Calm - N/A   Clear
5:54 AM 43.0 °F - 36.0 °F 76% 30.01 in 10.0 mi Calm Calm - N/A   Clear
6:54 AM 39.9 °F 36.7 °F 35.1 °F 83% 30.03 in 10.0 mi North 4.6 mph - N/A   Clear
7:54 AM 48.0 °F - 37.9 °F 68% 30.05 in 10.0 mi Calm Calm - N/A   Clear
8:54 AM 55.0 °F - 37.9 °F 53% 30.06 in 10.0 mi Calm Calm - N/A   Clear
9:54 AM 61.0 °F - 39.0 °F 44% 30.07 in 10.0 mi Calm Calm - N/A   Clear
10:54 AM 66.0 °F - 37.0 °F 34% 30.07 in 10.0 mi West 5.8 mph - N/A   Clear
11:54 AM 68.0 °F - 34.0 °F 28% 30.07 in 10.0 mi SW 5.8 mph - N/A   Clear
12:54 PM 71.1 °F - 34.0 °F 26% 30.07 in 10.0 mi WSW 9.2 mph - N/A   Clear
1:54 PM 72.0 °F - 33.1 °F 24% 30.05 in 10.0 mi Calm Calm - N/A   Clear
2:54 PM 73.0 °F - 33.1 °F 23% 30.03 in 10.0 mi Calm Calm - N/A   Clear
3:54 PM 73.0 °F - 36.0 °F 26% 30.03 in 10.0 mi SSW 5.8 mph - N/A   Clear
4:54 PM 72.0 °F - 34.0 °F 25% 30.03 in 10.0 mi South 4.6 mph - N/A   Clear
5:54 PM 66.9 °F - 41.0 °F 39% 30.03 in 10.0 mi Calm Calm - N/A   Clear
6:54 PM 57.9 °F - 43.0 °F 58% 30.04 in 10.0 mi Calm Calm - N/A   Clear
7:54 PM 57.9 °F - 41.0 °F 53% 30.04 in 10.0 mi SE 5.8 mph - N/A   Clear
8:54 PM 55.0 °F - 41.0 °F 59% 30.04 in 10.0 mi SE 5.8 mph - N/A   Clear
9:54 PM 55.0 °F - 41.0 °F 59% 30.01 in 10.0 mi ESE 9.2 mph - N/A   Clear
10:54 PM 51.1 °F - 43.0 °F 74% 30.04 in 10.0 mi NW 5.8 mph - N/A   Mostly Cloudy
11:54 PM 54.0 °F - 45.0 °F 72% 30.03 in 10.0 mi Calm Calm - N/A   Overcast